Home   Weather   Kumanovo   Past weeks

Flag for Macedonia, Republic of Past Weather in Kumanovo, Macedonia, Republic of — Yesterday and Last 2 Weeks

Now
43 °F

Passing clouds.


Feels Like: 43 °F
Forecast: 43 / 66 °F
Wind: No wind

Location: Skopje-Petrovec

Current Time: Sep 25, 2016 at 7:35:24 AM

Latest Report: Sep 25, 2016 at 7:00 AM


Visibility: N/A

Pressure: 30.21 "Hg

Humidity: 93%

Dew Point: 41 °F

Location of KumanovoLocation

Past Weather in Kumanovo — Graph

°F

Kumanovo Temperature Yesterday

Maximum temperature yesterday: 73 °F (at 3:00 PM)
Minimum temperature yesterday: 41 °F (at 4:30 AM)
Average temperature yesterday: 55 °F

High & Low Weather Summary for the Past Weeks

 TemperatureHumidityPressure
High88 °F (Sep 17, 4:00 PM)100% (Sep 10, 6:30 AM)30.36 "Hg (Sep 10, 6:30 AM)
Low39 °F (Sep 23, 6:30 AM)29% (Sep 23, 3:30 PM)29.65 "Hg (Sep 19, 3:30 PM)
Average65 °F70%30.02 "Hg
* Reported Sep 10 6:00 AM — Sep 25 6:00 AM, Kumanovo, Weather by CustomWeather, © 2016

Note: Actual official high and low records may vary slightly from our data, if they occured in-between our weather recording intervals... More about our weather records

Advertising

Kumanovo Weather History for the Previous 24 Hours

Scroll right to see more
 ConditionsComfort  
Time TempWeatherWind HumidityBarometerVisibility
6:00 AM
Sun, Sep 25
45 °FPassing clouds.2 mph87%30.21 "HgN/A
5:30 AM43 °FClear.1 mph93%30.21 "Hg10 mi
5:00 AM43 °FClear.No wind93%30.21 "Hg10 mi
4:30 AM43 °FClear.No wind93%30.21 "Hg10 mi
4:00 AM45 °FClear.2 mph87%30.21 "Hg10 mi
3:00 AM45 °FClear.1 mph87%30.21 "Hg10 mi
2:30 AM46 °FClear.No wind87%30.24 "Hg10 mi
2:00 AM48 °FClear.2 mph82%30.24 "Hg10 mi
1:30 AM48 °FClear.2 mph82%30.24 "Hg10 mi
1:00 AM48 °FClear.2 mph82%30.24 "Hg10 mi
12:30 AM48 °FClear.No wind87%30.24 "Hg10 mi
12:00 AM48 °FClear.No wind87%30.24 "Hg10 mi
11:30 PM
Sat, Sep 24
50 °FClear.2 mph82%30.24 "Hg10 mi
11:00 PM50 °FClear.2 mph82%30.24 "Hg10 mi
10:30 PM50 °FClear.No wind82%30.24 "Hg10 mi
10:00 PM52 °FClear.No wind77%30.24 "Hg10 mi
9:30 PM54 °FClear.5 mph77%30.24 "Hg10 mi
9:00 PM55 °FClear.5 mph72%30.24 "Hg10 mi
8:30 PM55 °FClear.1 mph72%30.24 "Hg10 mi
8:00 PM59 °FClear.1 mph63%30.24 "Hg10 mi
7:30 PM59 °FClear.2 mph68%30.24 "Hg10 mi
7:00 PM61 °FClear.2 mph63%30.21 "Hg10 mi
6:30 PM63 °FPassing clouds.1 mph59%30.21 "HgN/A
6:00 PM68 °FPassing clouds.2 mph46%30.21 "HgN/A
5:30 PM70 °FSunny.1 mph38%30.21 "Hg10 mi
5:00 PM72 °FSunny.2 mph36%30.21 "Hg10 mi
4:30 PM72 °FSunny.3 mph33%30.21 "Hg10 mi
4:00 PM73 °FSunny.2 mph33%30.24 "Hg10 mi
3:30 PM73 °FSunny.2 mph31%30.24 "Hg10 mi
3:00 PM73 °FSunny.1 mph31%30.24 "Hg10 mi
2:30 PM72 °FSunny.2 mph33%30.24 "Hg10 mi
2:00 PM72 °FSunny.1 mph33%30.27 "Hg10 mi
1:30 PM70 °FSunny.3 mph35%30.30 "Hg10 mi
1:00 PM68 °FSunny.2 mph38%30.30 "Hg10 mi
12:00 PM66 °FSunny.1 mph40%30.33 "Hg10 mi
11:00 AM63 °FSunny.1 mph52%30.33 "Hg10 mi
10:00 AM57 °FSunny.1 mph63%30.36 "Hg10 mi
9:30 AM55 °FSunny.No wind67%30.36 "Hg10 mi
9:00 AM50 °FSunny.No wind76%30.36 "Hg10 mi
8:00 AM46 °FSunny.1 mph82%30.36 "Hg10 mi
7:30 AM45 °FSunny.1 mph87%30.36 "Hg10 mi
7:00 AM41 °FSunny.1 mph93%30.36 "Hg10 mi
Weather by CustomWeather, © 2016

See weather overviewHow to use our weather pages